EW1669 Weather Reports


time (UTC)temp
C
wind
direction
speed
KPH
gust
KPH
rain 1hr
cm
rain 24hr
cm
rain mn
cm
humidity
%
barometer
mb
20260904045552 27 109 0.0 0.0 0.00 0.00 0.00 39 1017.3
20260904045013 27 111 0.0 0.0 0.00 0.00 0.00 39 1017.3
20260904044458 27 111 0.0 0.0 0.00 0.00 0.00 38 1017.3
20260904043859 27 114 0.0 0.0 0.00 0.00 0.00 39 1017.3
20260904043253 27 92 0.0 0.0 0.00 0.00 0.00 38 1017.7
20260904042711 27 104 0.0 0.0 0.00 0.00 0.00 39 1017.3
20260904042058 27 97 0.0 1.6 0.00 0.00 0.00 39 1017.3
20260904041503 27 73 0.0 1.6 0.00 0.00 0.00 39 1017.7
20260904040924 27 166 0.0 0.0 0.00 0.00 0.00 39 1017.3
20260904040347 27 168 0.0 0.0 0.00 0.00 0.00 39 1017.7
20260904035835 27 168 0.0 0.0 0.00 0.00 0.00 39 1017.7
20260904035246 27 168 0.0 0.0 0.00 0.00 0.00 40 1017.7
20260904034705 27 168 0.0 0.0 0.00 0.00 0.00 40 1017.3
20260904034139 27 168 0.0 0.0 0.00 0.00 0.00 40 1017.7
20260904033602 27 168 0.0 0.0 0.00 0.00 0.00 40 1017.3
20260904033021 27 168 0.0 0.0 0.00 0.00 0.00 40 1017.7
20260904032456 27 168 0.0 0.0 0.00 0.00 0.00 40 1017.3
20260904031858 27 199 0.0 0.0 0.00 0.00 0.00 40 1017.7
20260904031332 27 201 0.0 0.0 0.00 0.00 0.00 40 1017.3
20260904030941 27 199 0.0 1.6 0.00 0.00 0.00 40 1017.3
20260904030823 27 202 0.0 0.0 0.00 0.00 0.00 40 1017.3
20260904025649 27 181 0.0 6.4 0.00 0.00 0.00 40 1017.3
20260904025130 27 132 0.0 1.6 0.00 0.00 0.00 40 1017.0
20260904024554 27 144 0.0 1.6 0.00 0.00 0.00 40 1017.3
20260904024029 27 151 0.0 4.8 0.00 0.00 0.00 40 1017.0
20260904023512 27 136 0.0 3.2 0.00 0.00 0.00 40 1017.3
20260904023002 27 97 0.0 1.6 0.00 0.00 0.00 40 1017.0
20260904022453 27 131 0.0 9.7 0.00 0.00 0.00 40 1017.0
20260904022202 27 126 0.0 14.5 0.00 0.00 0.00 39 1017.0
20260904021354 28 153 1.6 14.5 0.00 0.00 0.00 39 1016.7
20260904021101 28 148 6.4 11.3 0.00 0.00 0.00 38 1016.7
20260904020741 28 134 0.0 9.7 0.00 0.00 0.00 37 1016.7
20260904020005 28 202 0.0 9.7 0.00 0.00 0.00 36 1016.7
20260904015149 29 128 3.2 17.7 0.00 0.00 0.00 35 1016.7
20260904014903 30 136 3.2 17.7 0.00 0.00 0.00 34 1016.0
20260904014336 30 126 1.6 12.9 0.00 0.00 0.00 33 1016.3
20260904013557 31 114 6.4 9.7 0.00 0.00 0.00 28 1016.3
20260904013014 32 160 0.0 14.5 0.00 0.00 0.00 28 1015.6
20260904012358 32 152 4.8 12.9 0.00 0.00 0.00 29 1015.6
20260904011843 32 154 1.6 11.3 0.00 0.00 0.00 28 1015.6
20260904011249 32 151 4.8 11.3 0.00 0.00 0.00 27 1015.6
20260904010933 32 120 0.0 11.3 0.00 0.00 0.00 27 1015.3
20260904010157 32 133 0.0 1.6 0.00 0.00 0.00 27 1015.6
20260904005608 32 131 0.0 3.2 0.00 0.00 0.00 27 1015.0
20260904005103 32 139 0.0 3.2 0.00 0.00 0.00 27 1015.3
20260904004537 32 144 1.6 9.7 0.00 0.00 0.00 27 1015.0
20260904004006 32 145 0.0 11.3 0.00 0.00 0.00 27 1015.0
20260904003506 32 159 0.0 9.7 0.00 0.00 0.00 27 1015.3
20260904003134 32 134 0.0 9.7 0.00 0.00 0.00 27 1015.3
20260904002357 33 135 3.2 11.3 0.00 0.00 0.00 28 1015.3
20260904001756 33 173 0.0 11.3 0.00 0.00 0.00 27 1015.6
20260904001157 33 130 3.2 11.3 0.00 0.00 0.00 26 1015.3
20260904001104 33 103 0.0 16.1 0.00 0.00 0.00 27 1015.3
20260904000326 33 120 12.9 16.1 0.00 0.00 0.00 26 1015.3
20260903235450 33 111 1.6 14.5 0.00 0.00 0.00 26 1015.3
20260903235148 33 163 1.6 16.1 0.00 0.00 0.00 26 1015.3
20260903234359 33 145 6.4 16.1 0.00 0.00 0.00 26 1015.0
20260903233833 33 154 1.6 14.5 0.00 0.00 0.00 26 1015.3
20260903233330 34 132 0.0 14.5 0.00 0.00 0.00 25 1015.0
20260903232759 35 218 0.0 4.8 0.00 0.00 0.00 23 1015.0
20260903232438 35 152 0.0 4.8 0.00 0.00 0.00 23 1015.3
20260903231648 35 136 0.0 0.0 0.00 0.00 0.00 22 1015.3
20260903231056 35 131 0.0 0.0 0.00 0.00 0.00 23 1015.0
20260903230457 35 142 0.0 0.0 0.00 0.00 0.00 22 1015.0
20260903225940 35 159 0.0 0.0 0.00 0.00 0.00 23 1015.0
20260903225428 34 198 0.0 9.7 0.00 0.00 0.00 23 1015.0
20260903224911 34 182 0.0 9.7 0.00 0.00 0.00 23 1015.3
20260903224401 34 137 3.2 9.7 0.00 0.00 0.00 23 1015.0
20260903223843 35 123 0.0 3.2 0.00 0.00 0.00 23 1015.3
20260903223319 35 117 0.0 4.8 0.00 0.00 0.00 23 1015.0
20260903223252 35 120 1.6 4.8 0.00 0.00 0.00 23 1015.3
20260903222311 35 135 1.6 4.8 0.00 0.00 0.00 23 1015.3
20260903221745 36 125 0.0 0.0 0.00 0.00 0.00 21 1015.3
20260903221223 35 134 0.0 0.0 0.00 0.00 0.00 22 1015.3
20260903220642 35 192 0.0 0.0 0.00 0.00 0.00 22 1015.3
20260903220130 36 203 0.0 0.0 0.00 0.00 0.00 22 1015.6
20260903215608 36 179 0.0 0.0 0.00 0.00 0.00 22 1015.3
20260903215540 36 131 0.0 0.0 0.00 0.00 0.00 21 1015.6
20260903214816 37 175 0.0 4.8 0.00 0.00 0.00 20 1015.3
20260903213917 36 116 0.0 4.8 0.00 0.00 0.00 20 1015.6
20260903213354 36 78 0.0 16.1 0.00 0.00 0.00 22 1015.6
20260903212844 37 152 12.9 16.1 0.00 0.00 0.00 21 1015.6
20260903212342 37 162 8.0 11.3 0.00 0.00 0.00 21 1015.6
20260903211826 36 146 0.0 9.7 0.00 0.00 0.00 21 1015.6
20260903211310 36 347 0.0 9.7 0.00 0.00 0.00 21 1015.6
20260903210753 36 54 3.2 9.7 0.00 0.00 0.00 23 1016.0
20260903210248 37 141 0.0 3.2 0.00 0.00 0.00 20 1016.0
20260903205742 37 122 0.0 0.0 0.00 0.00 0.00 22 1016.0
20260903205231 36 182 0.0 3.2 0.00 0.00 0.00 21 1016.0
20260903204619 36 281 0.0 1.6 0.00 0.00 0.00 22 1016.3
20260903204023 36 190 0.0 0.0 0.00 0.00 0.00 22 1016.0
20260903203508 35 155 0.0 0.0 0.00 0.00 0.00 23 1016.0
20260903202948 35 151 0.0 1.6 0.00 0.00 0.00 22 1016.3
20260903202430 36 126 0.0 1.6 0.00 0.00 0.00 22 1016.3
20260903202126 36 125 0.0 4.8 0.00 0.00 0.00 24 1016.3
20260903201343 36 123 3.2 4.8 0.00 0.00 0.00 22 1016.7
20260903200819 35 194 0.0 1.6 0.00 0.00 0.00 23 1016.7
20260903200305 35 175 0.0 3.2 0.00 0.00 0.00 23 1016.7
20260903195740 35 204 0.0 3.2 0.00 0.00 0.00 23 1016.7
20260903195152 35 134 0.0 6.4 0.00 0.00 0.00 23 1016.7
20260903194906 36 121 0.0 11.3 0.00 0.00 0.00 22 1016.7
20260903194113 37 196 3.2 11.3 0.00 0.00 0.00 21 1016.7
20260903193812 36 134 0.0 11.3 0.00 0.00 0.00 23 1016.7
20260903193033 35 142 0.0 11.3 0.00 0.00 0.00 23 1016.7
20260903192529 35 117 3.2 6.4 0.00 0.00 0.00 24 1017.0
20260903192215 35 178 0.0 4.8 0.00 0.00 0.00 23 1017.3
20260903191402 35 270 0.0 0.0 0.00 0.00 0.00 23 1017.3
20260903190737 35 125 0.0 0.0 0.00 0.00 0.00 25 1017.0
20260903190208 37 186 0.0 1.6 0.00 0.00 0.00 21 1017.3
20260903190124 38 196 0.0 1.6 0.00 0.00 0.00 21 1017.7
20260903185309 37 183 0.0 1.6 0.00 0.00 0.00 21 1017.3
20260903184745 37 199 0.0 0.0 0.00 0.00 0.00 21 1018.0
20260903184150 36 181 0.0 0.0 0.00 0.00 0.00 22 1017.7
20260903184026 36 185 0.0 0.0 0.00 0.00 0.00 22 1017.3
20260903182857 36 279 0.0 0.0 0.00 0.00 0.00 23 1017.7
20260903182338 36 187 0.0 0.0 0.00 0.00 0.00 23 1018.0
20260903181815 37 198 0.0 0.0 0.00 0.00 0.00 23 1018.0
20260903181238 36 169 0.0 0.0 0.00 0.00 0.00 23 1018.0
20260903180654 35 105 0.0 0.0 0.00 0.00 0.00 26 1018.3
20260903180615 36 165 0.0 1.6 0.00 0.00 0.00 23 1018.3
20260903175542 37 187 0.0 1.6 0.00 0.00 0.00 23 1018.3
20260903175037 36 263 0.0 0.0 0.00 0.00 0.00 24 1018.3
20260903174534 35 149 0.0 0.0 0.00 0.00 0.00 25 1018.3
20260903174034 36 189 0.0 0.0 0.00 0.00 0.00 24 1018.3
20260903173529 36 185 0.0 3.2 0.00 0.00 0.00 25 1018.3
20260903173016 35 190 0.0 3.2 0.00 0.00 0.00 26 1018.3
20260903172739 36 122 0.0 0.0 0.00 0.00 0.00 25 1018.0
20260903172005 35 207 0.0 6.4 0.00 0.00 0.00 25 1018.3
20260903171456 34 177 0.0 6.4 0.00 0.00 0.00 27 1018.3
20260903171216 35 185 0.0 3.2 0.00 0.00 0.00 27 1018.3
20260903170438 35 140 0.0 1.6 0.00 0.00 0.00 28 1018.3
20260903165920 34 191 0.0 1.6 0.00 0.00 0.00 28 1018.3
20260903165403 34 184 0.0 3.2 0.00 0.00 0.00 27 1018.7
20260903164858 33 166 0.0 3.2 0.00 0.00 0.00 28 1018.3
20260903164344 33 191 0.0 9.7 0.00 0.00 0.00 30 1018.3
20260903164104 33 183 0.0 11.3 0.00 0.00 0.00 30 1018.3
20260903163812 33 204 4.8 12.9 0.00 0.00 0.00 30 1018.7
20260903163317 33 168 0.0 12.9 0.00 0.00 0.00 31 1018.3
20260903162534 32 167 0.0 9.7 0.00 0.00 0.00 32 1018.3
20260903161806 32 184 0.0 9.7 0.00 0.00 0.00 33 1018.3
20260903161257 32 212 3.2 11.3 0.00 0.00 0.00 32 1018.7
20260903160755 31 198 0.0 11.3 0.00 0.00 0.00 33 1018.3
20260903160233 31 201 1.6 6.4 0.00 0.00 0.00 33 1018.7
20260903155950 31 197 1.6 11.3 0.00 0.00 0.00 33 1018.3
20260903155219 31 168 1.6 11.3 0.00 0.00 0.00 33 1018.3
20260903154716 31 217 0.0 17.7 0.00 0.00 0.00 34 1018.3
20260903154436 30 195 0.0 17.7 0.00 0.00 0.00 35 1018.3
20260903153713 30 167 6.4 14.5 0.00 0.00 0.00 35 1018.3
20260903153433 30 190 0.0 14.5 0.00 0.00 0.00 36 1018.3
20260903152704 30 197 0.0 14.5 0.00 0.00 0.00 36 1018.7
20260903152155 30 182 0.0 12.9 0.00 0.00 0.00 36 1018.3
20260903151649 29 211 0.0 12.9 0.00 0.00 0.00 38 1018.3
20260903151402 29 208 0.0 4.8 0.00 0.00 0.00 38 1018.7
20260903150632 29 192 0.0 9.7 0.00 0.00 0.00 39 1018.3
20260903150127 28 193 3.2 12.9 0.00 0.00 0.00 40 1018.3
20260903145625 28 196 1.6 12.9 0.00 0.00 0.00 41 1018.3
20260903145343 28 190 0.0 9.7 0.00 0.00 0.00 41 1018.7
20260903144833 28 195 0.0 12.9 0.00 0.00 0.00 40 1018.7
20260903144104 27 196 0.0 12.9 0.00 0.00 0.00 41 1018.7
20260903144022 27 187 1.6 11.3 0.00 0.00 0.00 41 1018.7
20260903143024 27 188 3.2 11.3 0.00 0.00 0.00 42 1018.7
20260903142523 27 203 1.6 12.9 0.00 0.00 0.00 43 1018.7
20260903142016 27 213 6.4 12.9 0.00 0.00 0.00 43 1018.7
20260903141503 27 180 0.0 11.3 0.00 0.00 0.00 43 1018.7
20260903140956 26 194 3.2 11.3 0.00 0.00 0.00 44 1018.3
20260903140449 26 188 0.0 9.7 0.00 0.00 0.00 45 1018.3
20260903135942 26 183 0.0 6.4 0.00 0.00 0.00 45 1018.7
20260903135435 25 209 1.6 6.4 0.00 0.00 0.00 45 1018.3
20260903134933 25 203 1.6 6.4 0.00 0.00 0.00 47 1018.7
20260903134428 25 183 0.0 6.4 0.00 0.00 0.00 47 1018.7
20260903133915 25 178 0.0 0.0 0.00 0.00 0.00 47 1018.7
20260903133413 24 191 0.0 0.0 0.00 0.00 0.00 48 1018.7
20260903132908 24 186 0.0 0.0 0.00 0.00 0.00 48 1018.3
20260903132401 24 166 0.0 0.0 0.00 0.00 0.00 48 1018.3
20260903131853 23 185 0.0 0.0 0.00 0.00 0.00 49 1018.3
20260903131331 23 149 0.0 3.2 0.00 0.00 0.00 49 1018.3
20260903130831 23 132 0.0 4.8 0.00 0.00 0.00 50 1018.3
20260903130331 22 184 0.0 4.8 0.00 0.00 0.00 50 1018.3
20260903125827 22 134 0.0 4.8 0.00 0.00 0.00 51 1018.3
20260903125317 22 152 1.6 4.8 0.00 0.00 0.00 51 1018.3
20260903124812 22 134 0.0 6.4 0.00 0.00 0.00 52 1018.3
20260903124311 22 141 0.0 6.4 0.00 0.00 0.00 51 1018.0
20260903123807 22 146 0.0 0.0 0.00 0.00 0.00 51 1018.0
20260903123258 22 141 0.0 0.0 0.00 0.00 0.00 51 1018.0
20260903122752 22 143 0.0 0.0 0.00 0.00 0.00 52 1018.0
20260903122245 22 152 0.0 0.0 0.00 0.00 0.00 52 1018.0
20260903121734 22 147 0.0 0.0 0.00 0.00 0.00 51 1018.0
20260903121226 22 144 0.0 0.0 0.00 0.00 0.00 51 1018.0
20260903120945 22 149 0.0 0.0 0.00 0.00 0.00 51 1018.0
20260903120217 22 143 0.0 0.0 0.00 0.00 0.00 51 1018.0
20260903115709 22 144 0.0 0.0 0.00 0.00 0.00 50 1018.0
20260903115648 22 140 0.0 0.0 0.00 0.00 0.00 50 1018.3
20260903114705 22 131 0.0 3.2 0.00 0.00 0.00 49 1018.0
20260903114421 22 150 0.0 6.4 0.00 0.00 0.00 49 1018.0
20260903113702 22 138 0.0 9.7 0.00 0.00 0.00 49 1018.0
20260903113152 22 143 1.6 9.7 0.00 0.00 0.00 48 1017.7
20260903112647 22 128 0.0 3.2 0.00 0.00 0.00 48 1018.0
20260903112134 22 162 0.0 9.7 0.00 0.00 0.00 48 1017.7
20260903111622 22 118 4.8 9.7 0.00 0.00 0.00 48 1018.0
20260903111115 22 132 0.0 0.0 0.00 0.00 0.00 49 1017.7
20260903110615 22 153 0.0 9.7 0.00 0.00 0.00 48 1018.0
20260903110521 22 149 0.0 9.7 0.00 0.00 0.00 48 1017.7
20260903110147 22 146 0.0 9.7 0.00 0.00 0.00 48 1018.0
20260903105318 22 149 0.0 4.8 0.00 0.00 0.00 48 1017.7
20260903104545 22 131 0.0 6.4 0.00 0.00 0.00 48 1018.0
20260903104041 23 139 0.0 6.4 0.00 0.00 0.00 47 1017.3
20260903103541 23 131 0.0 1.6 0.00 0.00 0.00 47 1017.7
20260903103032 23 159 0.0 1.6 0.00 0.00 0.00 47 1017.7
20260903102749 23 153 0.0 4.8 0.00 0.00 0.00 47 1017.7
20260903102013 22 144 0.0 4.8 0.00 0.00 0.00 48 1018.0
20260903101507 22 145 0.0 3.2 0.00 0.00 0.00 48 1017.7
20260903100953 22 157 0.0 3.2 0.00 0.00 0.00 49 1018.0
20260903100707 22 137 0.0 4.8 0.00 0.00 0.00 49 1018.0
20260903095937 22 145 0.0 4.8 0.00 0.00 0.00 49 1018.0
20260903095435 23 146 0.0 0.0 0.00 0.00 0.00 48 1018.0
20260903094931 23 150 0.0 3.2 0.00 0.00 0.00 48 1018.0
20260903094424 23 143 0.0 3.2 0.00 0.00 0.00 47 1018.3
20260903093912 23 135 0.0 0.0 0.00 0.00 0.00 48 1018.0
20260903093412 23 140 0.0 0.0 0.00 0.00 0.00 48 1018.0
20260903092903 22 126 0.0 1.6 0.00 0.00 0.00 48 1018.0
20260903092403 23 190 0.0 0.0 0.00 0.00 0.00 48 1017.7
20260903091901 23 187 0.0 0.0 0.00 0.00 0.00 48 1018.0
20260903091350 23 201 0.0 0.0 0.00 0.00 0.00 48 1018.0
20260903090847 23 195 0.0 0.0 0.00 0.00 0.00 48 1018.3
20260903090346 23 193 0.0 0.0 0.00 0.00 0.00 48 1018.3
20260903085844 23 176 0.0 0.0 0.00 0.00 0.00 48 1018.0
20260903085337 23 134 0.0 0.0 0.00 0.00 0.00 49 1018.0
20260903084824 23 179 0.0 0.0 0.00 0.00 0.00 49 1018.3
20260903084312 23 176 0.0 1.6 0.00 0.00 0.00 49 1018.0
20260903083813 23 153 0.0 0.0 0.00 0.00 0.00 48 1018.0
20260903083300 23 170 0.0 0.0 0.00 0.00 0.00 48 1018.0
20260903082755 23 119 0.0 0.0 0.00 0.00 0.00 48 1018.3
20260903082251 23 135 0.0 1.6 0.00 0.00 0.00 48 1018.0
20260903081739 23 155 0.0 1.6 0.00 0.00 0.00 48 1018.0
20260903081234 23 139 0.0 1.6 0.00 0.00 0.00 49 1018.0
20260903080951 23 162 0.0 0.0 0.00 0.00 0.00 49 1018.3
20260903080230 23 145 0.0 0.0 0.00 0.00 0.00 49 1018.3
20260903075720 23 135 0.0 1.6 0.00 0.00 0.00 49 1018.3
20260903075215 23 139 0.0 4.8 0.00 0.00 0.00 49 1018.0
20260903074715 23 170 1.6 4.8 0.00 0.00 0.00 48 1018.0
20260903074205 23 188 0.0 6.4 0.00 0.00 0.00 48 1018.3
20260903073658 23 124 0.0 6.4 0.00 0.00 0.00 48 1018.0
20260903073141 24 134 4.8 6.4 0.00 0.00 0.00 48 1018.3
20260903072641 24 145 0.0 0.0 0.00 0.00 0.00 48 1018.3
20260903072350 24 160 0.0 0.0 0.00 0.00 0.00 47 1018.3
20260903071630 23 144 0.0 4.8 0.00 0.00 0.00 47 1018.3
20260903071131 24 148 0.0 4.8 0.00 0.00 0.00 47 1018.3
20260903070616 23 145 0.0 1.6 0.00 0.00 0.00 48 1018.0
20260903070107 23 194 0.0 3.2 0.00 0.00 0.00 48 1018.3
20260903065605 24 175 0.0 3.2 0.00 0.00 0.00 47 1018.3
20260903065054 24 189 0.0 0.0 0.00 0.00 0.00 47 1018.3
20260903064552 24 172 0.0 1.6 0.00 0.00 0.00 47 1018.3
20260903064047 24 161 0.0 1.6 0.00 0.00 0.00 46 1018.3
20260903063541 25 143 0.0 3.2 0.00 0.00 0.00 46 1018.3
20260903063035 25 164 0.0 4.8 0.00 0.00 0.00 45 1018.3
20260903062530 25 136 1.6 4.8 0.00 0.00 0.00 46 1018.3
20260903062025 25 122 1.6 6.4 0.00 0.00 0.00 46 1018.3
20260903061516 25 135 0.0 12.9 0.00 0.00 0.00 45 1018.3
20260903061007 25 152 0.0 11.3 0.00 0.00 0.00 45 1018.3
20260903060454 25 146 1.6 9.7 0.00 0.00 0.00 45 1018.0
20260903055946 25 142 0.0 11.3 0.00 0.00 0.00 45 1018.0
20260903055701 25 134 1.6 11.3 0.00 0.00 0.00 45 1018.3
20260903054930 25 130 3.2 11.3 0.00 0.00 0.00 45 1018.3
20260903054421 25 150 0.0 9.7 0.00 0.00 0.00 46 1018.3
20260903053900 25 153 0.0 9.7 0.00 0.00 0.00 46 1018.3
20260903053356 25 164 0.0 11.3 0.00 0.00 0.00 46 1018.3
20260903052837 25 142 0.0 11.3 0.00 0.00 0.00 46 1018.3
20260903052333 25 123 6.4 11.3 0.00 0.00 0.00 46 1018.3
20260903051832 25 150 0.0 9.7 0.00 0.00 0.00 46 1018.3
20260903051315 25 122 1.6 9.7 0.00 0.00 0.00 46 1018.3
20260903050811 25 146 0.0 6.4 0.00 0.00 0.00 47 1018.3
20260903050303 25 133 0.0 6.4 0.00 0.00 0.00 48 1018.3
20260903045750 25 144 0.0 6.4 0.00 0.00 0.00 47 1018.3